Terug naar catalogus

ARIANE 2 DEB

ActiefGTO
NORAD 26726·DEBRIS·🇫🇷 France

Gelanceerd Jan 27, 1989 vanaf Guiana Space Centre

Loading…

TLE

VerouderendSource: Space-Track

Epoch: Sep 14, 2026, 10:54 UTC

1 26726U 89006D   26257.45439685 -.00000062  00000-0  11824-2 0  9999
2 26726   8.1998  60.7182 7165564 106.9478 282.0848  2.27691724213247

Volg ARIANE 2 DEB in realtime met AllMySat

Download on the App Store